Time,TemperatureF,DewpointF,PressureIn,WindDirection,WindDirectionDegrees,WindSpeedMPH,WindSpeedGustMPH,Humidity,HourlyPrecipIn,Conditions,Clouds,dailyrainin,SolarRadiationWatts/m^2,SoftwareType,DateUTC
2013-05-11 00:00:00,36.0,31.0,-100.00,SE,130,0.0,1.0,84,-99.99,,,-99.99,0.000000,,2013-05-11 06:00:00,
2013-05-11 01:00:00,33.0,-99.9,-100.00,North,-999,-999.0,-999.0,-999,-99.99,,,0.00,,,2013-05-11 07:00:00,
2013-05-11 01:52:00,33.0,-99.9,-100.00,North,-999,-999.0,-999.0,-999,-99.99,,,0.00,,,2013-05-11 07:52:00,
2013-05-11 02:00:00,32.0,30.0,-100.00,ESE,116,0.0,2.0,93,-99.99,,,0.00,0.000000,,2013-05-11 08:00:00,
2013-05-11 03:00:00,31.0,29.0,-100.00,SE,144,0.0,1.0,95,-99.99,,,0.00,0.000000,,2013-05-11 09:00:00,
2013-05-11 04:00:00,30.0,29.0,-100.00,SE,141,0.0,2.0,96,-99.99,,,0.00,0.000000,,2013-05-11 10:00:00,
2013-05-11 05:00:00,29.0,28.0,-100.00,SE,136,0.0,2.0,96,-99.99,,,0.00,0.000000,,2013-05-11 11:00:00,
2013-05-11 06:00:00,29.0,29.0,-100.00,SE,132,0.0,1.0,97,-99.99,,,-99.99,0.300000,,2013-05-11 12:00:00,
2013-05-11 07:00:00,30.0,29.0,-100.00,SSE,156,0.0,1.0,97,-99.99,,,-99.99,16.200001,,2013-05-11 13:00:00,
2013-05-11 08:00:00,37.0,35.0,-100.00,ESE,123,0.0,2.0,93,-99.99,,,-99.99,55.299999,,2013-05-11 14:00:00,
2013-05-11 09:00:00,49.0,36.0,-100.00,NE,54,1.0,6.0,60,-99.99,,,-99.99,280.200012,,2013-05-11 15:00:00,
2013-05-11 10:00:00,47.0,26.0,-100.00,NNE,31,1.0,7.0,45,-99.99,,,-99.99,167.000000,,2013-05-11 16:00:00,
2013-05-11 11:00:00,52.0,29.0,-100.00,North,6,2.0,8.0,42,-99.99,,,-99.99,809.200012,,2013-05-11 17:00:00,
2013-05-11 12:00:00,49.0,27.0,-100.00,NE,35,2.0,7.0,42,-99.99,,,-99.99,572.000000,,2013-05-11 18:00:00,
2013-05-11 13:00:00,54.0,31.0,-100.00,NE,35,2.0,6.0,41,-99.99,,,-99.99,700.900024,,2013-05-11 19:00:00,
2013-05-11 14:00:00,54.0,26.0,-100.00,NNE,29,2.0,8.0,33,-99.99,,,-99.99,705.400024,,2013-05-11 20:00:00,
2013-05-11 15:00:00,53.0,24.0,-100.00,ENE,59,2.0,7.0,32,-99.99,,,0.00,867.500000,,2013-05-11 21:00:00,
2013-05-11 16:00:00,54.0,26.0,-100.00,SE,141,2.0,8.0,34,-99.99,,,-99.99,415.500000,,2013-05-11 22:00:00,
2013-05-11 17:00:00,49.0,26.0,-100.00,East,82,1.0,7.0,41,-99.99,,,0.00,88.199997,,2013-05-11 23:00:00,
2013-05-11 19:00:00,50.0,33.0,-100.00,NE,55,1.0,4.0,51,-99.99,,,0.00,89.099998,,2013-05-12 01:00:00,
2013-05-11 20:00:00,45.0,28.0,-100.00,ENE,57,1.0,3.0,51,-99.99,,,0.00,18.299999,,2013-05-12 02:00:00,
2013-05-11 21:00:00,-999.0,-99.9,-100.00,ESE,115,1.0,3.0,62,-99.99,,,-99.99,0.000000,,2013-05-12 03:00:00,
2013-05-11 22:00:00,39.0,29.0,-100.00,WNW,283,0.0,2.0,67,-99.99,,,-99.99,0.000000,,2013-05-12 04:00:00,
2013-05-11 23:00:00,39.0,30.0,-100.00,WSW,253,0.0,1.0,72,-99.99,,,0.00,0.000000,,2013-05-12 05:00:00,